Tok, AK

5:22 AM AKST on December 03, 2016 (GMT -0900)
Eagle

Weather History for PAEG - February, 2014

Change the Weather History Date:

Wednesday, February 19, 2014

  Actual Average (PABN) Record (PABN)
Temperature  
Mean Temperature -13 °F -  
Max Temperature -2 °F 14 °F 39 °F (2006)
Min Temperature -24 °F 4 °F -13 °F (2014)
Degree Days  
Heating Degree Days 78    
Moisture  
Dew Point -19 °F    
Average Humidity 66    
Maximum Humidity 74    
Minimum Humidity 55    
Precipitation  
Precipitation 0.00 in - - ()
Sea Level Pressure  
Sea Level Pressure 29.82 in    
Wind  
Wind Speed 2 mph (North)    
Max Wind Speed 6 mph    
Max Gust Speed -    
Visibility 10 miles    
Events      
Averages and records for this station are not official NWS values.
T = Trace of Precipitation, MM = Missing Value Source: NWS Daily Summary

Daily Weather History Graph

Daily Weather History Graph

Search for Another Location

Airport or City:

Trip Planner

Search our weather history database for the weather conditions in past years. The results will help you decide how hot, cold, wet, or windy it might be!

Date:

Astronomy

Feb. 19, 2014 Rise Set
Actual Time 8:08 AM AKST 5:09 PM AKST
Civil Twilight 7:17 AM AKST 6:01 PM AKST
Nautical Twilight 6:20 AM AKST 6:58 PM AKST
Astronomical Twilight 5:23 AM AKST 7:54 PM AKST
Moon No Moon Rise 8:27 AM AKST (2/19)
Length of Visible Light 10h 43m
Length of Day
9h 01m
Waning Gibbous, 78% of the Moon is Illuminated
Feb 19
Waning Gibbous
Feb 22
Last Quarter
Feb 28
New
Mar 8
First Quarter
Mar 16
Full

Hourly Weather History & Observations

Time (AKST) Temp. Windchill Dew Point Humidity Pressure Visibility Wind Dir Wind Speed Gust Speed Precip Events Conditions
12:53 AM -9.0 °F -20.4 °F -20.0 °F 59% 29.76 in 10.0 mi East 4.6 mph - N/A   Overcast
1:53 AM -9.0 °F -22.3 °F -20.9 °F 56% 29.76 in 10.0 mi East 5.8 mph - N/A   Overcast
2:53 AM -11.0 °F -22.8 °F -23.1 °F 55% 29.77 in 10.0 mi East 4.6 mph - N/A   Clear
3:53 AM -11.9 °F - -23.1 °F 58% 29.78 in 10.0 mi Calm Calm - N/A   Clear
4:53 AM -13.0 °F - -24.0 °F 58% 29.77 in 10.0 mi Calm Calm - N/A   Clear
5:53 AM -20.0 °F - -26.0 °F 74% 29.78 in 10.0 mi Calm Calm - N/A   Clear
6:53 AM -22.0 °F - -27.9 °F 74% 29.79 in 10.0 mi Calm Calm - N/A   Clear
7:53 AM -24.0 °F - -29.9 °F 74% 29.80 in 10.0 mi Calm Calm - N/A   Clear
8:53 AM -24.0 °F - -29.9 °F 74% 29.81 in 10.0 mi Calm Calm - N/A   Clear
9:53 AM -17.0 °F - -25.1 °F 67% 29.81 in 10.0 mi Calm Calm - N/A   Clear
10:51 AM -16.6 °F - -25.6 °F 64% 29.73 in 10.0 mi Calm Calm - N/A   Mostly Cloudy
10:53 AM -16.1 °F - -24.0 °F 67% 29.82 in 10.0 mi Calm Calm - N/A   Mostly Cloudy
11:53 AM -13.0 °F - -22.0 °F 64% 29.82 in 10.0 mi Calm Calm - N/A   Overcast
12:53 PM -8.0 °F - -18.0 °F 61% 29.82 in 10.0 mi Calm Calm - N/A   Overcast
1:53 PM -6.0 °F -14.7 °F -16.1 °F 62% 29.82 in 10.0 mi NW 3.5 mph - N/A   Overcast
2:53 PM -5.1 °F - -15.0 °F 62% 29.82 in 10.0 mi Calm Calm - N/A   Overcast
3:53 PM -2.9 °F - -13.0 °F 62% 29.82 in 10.0 mi Calm Calm - N/A   Overcast
4:53 PM -2.9 °F - -13.0 °F 62% 29.83 in 10.0 mi Calm Calm - N/A   Overcast
5:53 PM -4.0 °F - -11.0 °F 72% 29.85 in 10.0 mi Calm Calm - N/A   Overcast
6:53 PM -2.9 °F - -11.0 °F 68% 29.87 in 10.0 mi Calm Calm - N/A   Overcast
7:53 PM -4.0 °F -14.6 °F -11.9 °F 69% 29.88 in 10.0 mi WNW 4.6 mph - N/A   Overcast
8:53 PM -5.1 °F - -13.0 °F 69% 29.89 in 10.0 mi Calm Calm - N/A   Overcast
9:53 PM -6.0 °F -14.7 °F -13.0 °F 72% 29.90 in 10.0 mi NW 3.5 mph - N/A   Overcast
10:53 PM -6.0 °F -14.7 °F -14.1 °F 68% 29.92 in 10.0 mi NW 3.5 mph - N/A   Overcast
11:53 PM -6.0 °F - -14.1 °F 68% 29.93 in 10.0 mi Calm Calm - N/A   Overcast